M I D A S
Marine Information and Data Acquisition System
Tripno 1074 of the Zeeleeuw from 2006-04-21 07:07:59 to 2006-04-21 08:28:20
Back to CruiseResearch ActivitiesStationsMapUnderway DataData graphs

EquipmentUnitsComments
TimeDGPSUTC
LatitudeDGPSDM.mWGS84
LongitudeDGPSDM.mWGS84
SpeedMeteo Stationm/sRelative wind speed
DirectionMeteo StationdegRelative wind direction
TemperatureMeteo Stationdeg CelciusAir temperature
PressureMeteo StationPaAtmospheric pressure
HumidityMeteo Station%Relative humidity
Missing or incorrect values are displayed as -999
Metereological data collected by the RV Zeeleeuw from 2006-04-21 07:01:57 to 2006-04-21 10:24:19
Time Latitude Longitude Speed Direction Temperature Pressure Humidity
2006-04-21 07:03 51°13.608 2°56.058 -999 105 12.3 101480 62
2006-04-21 07:04 51°13.623 2°55.995 -999 108 12.3 101480 62
2006-04-21 07:05 51°13.64 2°55.931 -999 95 12.4 101480 62
2006-04-21 07:06 51°13.661 2°55.867 -999 88 12.4 101480 62
2006-04-21 07:07 51°13.688 2°55.794 -999 126 12.4 101480 62
2006-04-21 07:08 51°13.695 2°55.778 -999 134 12.5 101480 62
2006-04-21 07:09 51°13.696 2°55.756 -999 101 12.4 101490 62
2006-04-21 07:10 51°13.702 2°55.755 -999 22 12.4 101480 62
2006-04-21 07:11 51°13.751 2°55.716 -999 10 12.3 101490 62
2006-04-21 07:12 51°13.863 2°55.613 -999 11 12.3 101490 62
2006-04-21 07:13 51°13.987 2°55.518 -999 9 12.3 101490 63
2006-04-21 07:14 51°14.114 2°55.426 -999 12 12.3 101490 62
2006-04-21 07:15 51°14.227 2°55.311 -999 11 12.3 101480 61
2006-04-21 07:16 51°14.321 2°55.146 -999 7 12.3 101490 62
2006-04-21 07:17 51°14.397 2°54.953 -999 359 12.3 101480 62
2006-04-21 07:18 51°14.435 2°54.678 -999 350 12.4 101480 61
2006-04-21 07:19 51°14.415 2°54.392 -999 342 12.4 101480 61
2006-04-21 07:20 51°14.343 2°54.158 -999 344 12.4 101480 62
2006-04-21 07:21 51°14.278 2°53.997 -999 327 12.3 101480 62
2006-04-21 07:22 51°14.24 2°53.871 -999 313 12.4 101480 60
2006-04-21 07:23 51°14.213 2°53.757 -999 43 12.4 101490 60
2006-04-21 07:24 51°14.176 2°53.663 -999 314 12.4 101480 60
2006-04-21 07:25 51°14.137 2°53.573 -999 304 12.5 101480 60
2006-04-21 07:26 51°14.101 2°53.475 -999 297 12.5 101490 60
2006-04-21 07:27 51°14.072 2°53.37 -999 295 12.5 101480 61
2006-04-21 07:28 51°14.037 2°53.273 -999 307 12.5 101490 60
2006-04-21 07:29 51°13.995 2°53.188 -999 304 12.5 101490 60
2006-04-21 07:30 51°13.953 2°53.1 -999 298 12.5 101480 60
2006-04-21 07:31 51°13.916 2°53.004 -999 295 12.6 101480 60
2006-04-21 07:32 51°13.879 2°52.911 -999 290 12.6 101490 60
2006-04-21 07:33 51°13.85 2°52.808 -999 281 12.6 101490 61
2006-04-21 07:34 51°13.816 2°52.706 -999 303 12.6 101490 61
2006-04-21 07:35 51°13.773 2°52.615 -999 311 12.6 101490 60
2006-04-21 07:36 51°13.729 2°52.53 -999 313 12.6 101490 60
2006-04-21 07:37 51°13.688 2°52.438 -999 305 12.6 101490 61
2006-04-21 07:38 51°13.63 2°52.417 -999 350 12.6 101490 60
2006-04-21 07:39 51°13.611 2°52.518 -999 28 12.5 101490 61
2006-04-21 07:40 51°13.646 2°52.608 -999 42 12.5 101490 61
2006-04-21 07:41 51°13.69 2°52.7 -999 42 12.4 101490 61
2006-04-21 07:42 51°13.738 2°52.799 -999 42 12.4 101490 62
2006-04-21 07:43 51°13.786 2°52.903 -999 35 12.4 101500 61
2006-04-21 07:44 51°13.837 2°53.01 -999 29 12.3 101500 62
2006-04-21 07:45 51°13.884 2°53.117 -999 38 12.4 101500 62
2006-04-21 07:46 51°13.933 2°53.228 -999 34 12.4 101500 62
2006-04-21 07:47 51°13.983 2°53.334 -999 36 12.4 101500 62
2006-04-21 07:48 51°14.036 2°53.443 -999 37 12.5 101500 61
2006-04-21 07:49 51°14.085 2°53.55 -999 29 12.5 101510 61
2006-04-21 07:50 51°14.135 2°53.652 -999 20 12.5 101500 61
2006-04-21 07:51 51°14.183 2°53.755 -999 26 12.6 101510 64
2006-04-21 07:52 51°14.223 2°53.838 -999 36 12.5 101510 62
2006-04-21 07:53 51°14.261 2°53.907 -999 41 12.5 101500 63
2006-04-21 07:54 51°14.298 2°53.966 -999 60 12.5 101500 62
2006-04-21 07:55 51°14.337 2°53.999 -999 74 12.4 101510 63
2006-04-21 07:56 51°14.374 2°54.021 -999 88 12.4 101500 62
2006-04-21 07:57 51°14.406 2°54.035 -999 101 12.4 101500 63
2006-04-21 07:58 51°14.448 2°53.977 -999 144 12.4 101510 62
2006-04-21 07:59 51°14.43 2°53.888 -999 287 12.5 101510 62
2006-04-21 08:00 51°14.389 2°53.812 -999 308 12.6 101510 61
2006-04-21 08:01 51°14.342 2°53.74 -999 227 12.6 101510 62
2006-04-21 08:02 51°14.3 2°53.652 -999 307 12.7 101510 62
2006-04-21 08:03 51°14.272 2°53.553 -999 309 12.7 101510 62
2006-04-21 08:04 51°14.248 2°53.448 -999 345 12.7 101510 62
2006-04-21 08:05 51°14.212 2°53.36 -999 353 12.7 101510 63
2006-04-21 08:06 51°14.176 2°53.269 -999 9 12.6 101510 63
2006-04-21 08:07 51°14.13 2°53.246 -999 30 12.5 101520 63
2006-04-21 08:08 51°14.1 2°53.299 -999 31 12.5 101520 65
2006-04-21 08:09 51°14.11 2°53.379 -999 48 12.5 101520 63
2006-04-21 08:10 51°14.148 2°53.476 -999 329 12.7 101520 62
2006-04-21 08:11 51°14.202 2°53.614 -999 315 12.8 101530 63
2006-04-21 08:12 51°14.249 2°53.748 -999 315 12.8 101530 64
2006-04-21 08:13 51°14.287 2°53.866 -999 300 12.8 101530 63
2006-04-21 08:14 51°14.323 2°53.983 -999 323 12.8 101530 65
2006-04-21 08:15 51°14.364 2°54.118 -999 318 12.7 101540 66
2006-04-21 08:16 51°14.415 2°54.279 -999 330 12.6 101540 67
2006-04-21 08:17 51°14.456 2°54.428 -999 329 12.5 101540 67
2006-04-21 08:18 51°14.465 2°54.544 -999 183 12.5 101540 66
2006-04-21 08:19 51°14.46 2°54.652 -999 139 12.5 101540 66
2006-04-21 08:20 51°14.439 2°54.773 -999 119 12.5 101540 67
2006-04-21 08:21 51°14.404 2°54.908 -999 81 12.4 101550 67
2006-04-21 08:22 51°14.365 2°55.036 -999 112 12.4 101550 68
2006-04-21 08:23 51°14.327 2°55.144 -999 129 12.3 101550 69
2006-04-21 08:24 51°14.298 2°55.215 -999 129 12.2 101540 69
2006-04-21 08:25 51°14.271 2°55.271 -999 116 12.2 101550 68
2006-04-21 08:26 51°14.232 2°55.331 -999 52 12.2 101550 68
2006-04-21 08:27 51°14.149 2°55.394 -999 37 12.2 101550 66
2006-04-21 08:28 51°14.07 2°55.44 -999 29 12.4 101550 64
2006-04-21 08:29 51°14.016 2°55.455 -999 36 12.6 101550 64
2006-04-21 08:30 51°13.996 2°55.459 -999 339 12.8 101540 63
2006-04-21 08:31 51°13.995 2°55.459 -999 280 13.1 101540 63
2006-04-21 08:32 51°13.996 2°55.457 -999 278 13.3 101540 63
2006-04-21 08:33 51°13.997 2°55.457 -999 265 13.5 101540 63
2006-04-21 08:34 51°13.997 2°55.457 -999 282 13.6 101540 62
2006-04-21 08:35 51°13.997 2°55.456 -999 267 13.8 101540 61
2006-04-21 08:36 51°13.997 2°55.456 -999 275 13.9 101540 61
2006-04-21 08:37 51°13.998 2°55.456 -999 234 14.1 101540 60
2006-04-21 08:38 51°13.998 2°55.456 -999 237 14.2 101540 60
2006-04-21 08:39 51°13.998 2°55.456 -999 227 14.3 101540 59
2006-04-21 08:40 51°13.998 2°55.455 -999 182 14.4 101540 58
2006-04-21 08:41 51°13.998 2°55.456 -999 177 14.1 101550 60
2006-04-21 08:42 51°13.998 2°55.456 -999 225 13.7 101540 62
2006-04-21 08:43 51°13.998 2°55.456 -999 216 13.6 101540 63
2006-04-21 08:44 51°13.998 2°55.456 -999 225 13.5 101540 64
2006-04-21 08:45 51°13.998 2°55.456 -999 215 13.5 101540 65
2006-04-21 08:46 51°13.998 2°55.456 -999 214 13.4 101540 65
2006-04-21 08:47 51°13.998 2°55.457 -999 204 13.6 101540 64
2006-04-21 08:48 51°13.998 2°55.456 -999 204 13.8 101540 64
2006-04-21 08:49 51°13.998 2°55.456 -999 204 13.9 101540 62
2006-04-21 08:50 51°13.998 2°55.456 -999 205 14.1 101540 61
2006-04-21 08:51 51°13.999 2°55.456 -999 207 14.3 101540 61
2006-04-21 08:52 51°13.999 2°55.456 -999 207 14.5 101540 59
2006-04-21 08:53 51°13.998 2°55.456 -999 207 14.6 101550 58
2006-04-21 08:54 51°13.998 2°55.456 -999 207 14.8 101550 57
2006-04-21 08:55 51°13.998 2°55.456 -999 207 15 101550 56
2006-04-21 08:56 51°13.998 2°55.456 -999 207 15.2 101550 55
2006-04-21 08:57 51°13.998 2°55.456 -999 205 15.1 101550 56
2006-04-21 08:58 51°13.998 2°55.456 -999 176 15.2 101550 57
2006-04-21 08:59 51°13.997 2°55.456 -999 178 14.8 101550 57
2006-04-21 09:00 51°13.998 2°55.456 -999 176 14.7 101550 58
2006-04-21 09:01 51°13.998 2°55.456 -999 191 14.5 101550 59
2006-04-21 09:02 51°13.999 2°55.456 -999 185 14.4 101550 59
2006-04-21 09:03 51°13.998 2°55.456 -999 179 14.2 101560 60
2006-04-21 09:04 51°13.999 2°55.456 -999 164 14.1 101560 61
2006-04-21 09:05 51°13.998 2°55.456 -999 168 13.8 101560 61
2006-04-21 09:06 51°13.998 2°55.456 -999 170 13.7 101560 61
2006-04-21 09:07 51°13.998 2°55.457 -999 169 13.6 101560 62
2006-04-21 09:08 51°13.998 2°55.456 -999 202 13.7 101560 62
2006-04-21 09:09 51°13.998 2°55.456 -999 176 13.8 101570 63
2006-04-21 09:10 51°13.998 2°55.456 -999 181 13.9 101570 62
2006-04-21 09:11 51°13.998 2°55.456 -999 182 14 101570 61
2006-04-21 09:12 51°13.999 2°55.456 -999 181 14.2 101570 62
2006-04-21 09:13 51°13.999 2°55.456 -999 174 14.2 101570 60
2006-04-21 09:14 51°13.999 2°55.456 -999 181 14.2 101570 63
2006-04-21 09:15 51°13.998 2°55.456 -999 187 14.2 101570 63
2006-04-21 09:16 51°13.999 2°55.456 -999 179 14.2 101570 63
2006-04-21 09:17 51°13.998 2°55.457 -999 180 14.1 101570 63
2006-04-21 09:18 51°13.997 2°55.457 -999 178 13.9 101570 62
2006-04-21 09:19 51°13.998 2°55.457 -999 192 13.8 101580 63
2006-04-21 09:20 51°13.997 2°55.457 -999 189 13.9 101570 63
2006-04-21 09:21 51°13.998 2°55.457 -999 186 14 101570 62
2006-04-21 09:22 51°13.998 2°55.457 -999 183 14 101570 61
2006-04-21 09:23 51°13.998 2°55.457 -999 188 14.2 101580 61
2006-04-21 09:24 51°13.998 2°55.457 -999 180 14.2 101580 62
2006-04-21 09:25 51°13.998 2°55.456 -999 188 14.3 101580 62
2006-04-21 09:26 51°13.998 2°55.457 -999 191 14.4 101580 61
2006-04-21 09:27 51°13.998 2°55.457 -999 194 14.5 101580 62
2006-04-21 09:28 51°13.999 2°55.456 -999 187 14.5 101580 62
2006-04-21 09:29 51°13.999 2°55.457 -999 198 14.5 101580 62
2006-04-21 09:30 51°13.999 2°55.456 -999 193 14.5 101580 63
2006-04-21 09:31 51°13.999 2°55.457 -999 187 14.5 101580 63
2006-04-21 09:32 51°13.999 2°55.456 -999 186 14.5 101580 62
2006-04-21 09:33 51°13.999 2°55.456 -999 186 14.4 101580 61
2006-04-21 09:34 51°13.999 2°55.456 -999 182 14.4 101580 61
2006-04-21 09:35 51°13.998 2°55.456 -999 183 14.4 101570 59
2006-04-21 09:36 51°13.998 2°55.456 -999 180 14.3 101570 57
2006-04-21 09:37 51°13.998 2°55.456 -999 174 14.1 101580 58
2006-04-21 09:38 51°13.999 2°55.456 -999 171 13.9 101570 57
2006-04-21 09:39 51°13.999 2°55.456 -999 170 13.7 101580 59
2006-04-21 09:40 51°13.998 2°55.456 -999 170 13.6 101580 60
2006-04-21 09:41 51°13.998 2°55.457 -999 182 13.6 101580 61
2006-04-21 09:42 51°13.998 2°55.457 -999 181 13.8 101580 61
2006-04-21 09:43 51°13.998 2°55.457 -999 181 13.8 101580 61
2006-04-21 09:44 51°13.998 2°55.457 -999 181 14 101580 61
2006-04-21 09:45 51°13.997 2°55.457 -999 191 14.1 101590 60
2006-04-21 09:46 51°13.998 2°55.457 -999 179 14.1 101590 60
2006-04-21 09:47 51°13.998 2°55.457 -999 182 14 101590 62
2006-04-21 09:48 51°13.998 2°55.457 -999 182 14.1 101590 63
2006-04-21 09:49 51°13.998 2°55.457 -999 185 14.2 101590 62
2006-04-21 09:50 51°13.998 2°55.457 -999 183 14.2 101590 63
2006-04-21 09:51 51°13.998 2°55.457 -999 175 14.2 101590 61
2006-04-21 09:52 51°13.998 2°55.458 -999 187 14.3 101600 60
2006-04-21 09:53 51°13.998 2°55.457 -999 190 14.4 101600 60
2006-04-21 09:54 51°13.998 2°55.457 -999 196 14.5 101600 61
2006-04-21 09:55 51°13.998 2°55.457 -999 190 14.5 101600 64
2006-04-21 09:56 51°13.998 2°55.457 -999 170 14.4 101600 65
2006-04-21 09:57 51°13.998 2°55.457 -999 190 14.2 101600 66
2006-04-21 09:58 51°13.998 2°55.457 -999 193 14.2 101600 67
2006-04-21 09:59 51°13.998 2°55.456 -999 180 14.3 101600 68
2006-04-21 10:00 51°13.998 2°55.456 -999 184 14.2 101600 65
2006-04-21 10:01 51°13.998 2°55.456 -999 193 14.1 101600 64
2006-04-21 10:02 51°13.998 2°55.455 -999 162 14.1 101590 64
2006-04-21 10:03 51°13.998 2°55.455 -999 202 14 101600 62
2006-04-21 10:04 51°13.998 2°55.455 -999 176 13.9 101590 63
2006-04-21 10:05 51°13.998 2°55.455 -999 189 14 101590 64
2006-04-21 10:06 51°13.998 2°55.455 -999 185 14 101600 65
2006-04-21 10:07 51°13.998 2°55.455 -999 187 13.8 101600 66
2006-04-21 10:08 51°13.998 2°55.456 -999 191 13.6 101600 67
2006-04-21 10:09 51°13.998 2°55.456 -999 189 13.6 101600 68
2006-04-21 10:10 51°13.998 2°55.456 -999 202 13.7 101600 67
2006-04-21 10:11 51°13.997 2°55.456 -999 189 13.7 101600 67
2006-04-21 10:12 51°13.997 2°55.458 -999 172 13.7 101600 67
2006-04-21 10:13 51°14.004 2°55.461 -999 172 13.5 101600 66
2006-04-21 10:14 51°14.024 2°55.463 -999 153 13.3 101600 65
2006-04-21 10:15 51°13.977 2°55.499 -999 235 13.3 101600 66
2006-04-21 10:16 51°13.903 2°55.56 -999 342 13.4 101600 68
2006-04-21 10:17 51°13.819 2°55.631 -999 344 13.6 101600 67
2006-04-21 10:18 51°13.743 2°55.726 -999 311 13.8 101600 65
2006-04-21 10:19 51°13.682 2°55.84 -999 327 13.9 101600 61
2006-04-21 10:20 51°13.643 2°55.933 -999 284 14.1 101600 59
2006-04-21 10:21 51°13.62 2°56.007 -999 280 14.4 101600 59
2006-04-21 10:22 51°13.611 2°56.062 -999 297 14.7 101600 58
2006-04-21 10:23 51°13.606 2°56.087 -999 235 15 101600 57
2006-04-21 10:24 51°13.602 2°56.095 -999 220 15.1 101590 56